User: anonymous   Login
Location: Unspecified
(0.0000°N, 0.0000°E)
Time: 20:12:00
(UTC+00:00)
Language:

SLDCOM 1 - Orbit

View from above orbital plane
View from above orbital plane
View from above satellite
View from above satellite

Ground track
Ground track

The orbit data is extracted from the following two-line orbital elements,

1 20641U 90050A   21135.68504466 0.00000000  00000-0  00000-0 0    01
2 20641  63.4159  54.2029 4057524 264.9026  48.8690  6.02572029    09
Epoch (UTC): 15 May 2021 16:26:27
Eccentricity: 0.4057524
inclination: 63.4159°
perigee height: 1202 km
apogee height: 11554 km
right ascension of ascending node: 54.2029°
argument of perigee: 264.9026°
revolutions per day: 6.02572029
mean anomaly at epoch: 48.8690°
orbit number at epoch: 0

The dashed part of the orbit path shows where the satellite is in the earth's shadow,  

DLR